Jackson Hawkins Field, MS

9:44 PM CDT on September 22, 2019 (GMT -0500)
Hawkins

Weather History for KHKS - July, 2019

Change the Weather History Date:

Thursday, July 11, 2019

  Actual Average (WUND) Record (WUND)
Temperature  
Mean Temperature 85 °F -  
Max Temperature 96 °F - - (-1)
Min Temperature 75 °F - - (-1)
Cooling Degree Days 20    
Growing Degree Days 35 (Base 50)    
Moisture  
Dew Point 76 °F    
Average Humidity 86    
Maximum Humidity 100    
Minimum Humidity 50    
Precipitation  
Precipitation 0.63 in - - ()
Sea Level Pressure  
Sea Level Pressure 29.87 in    
Wind  
Wind Speed 3 mph (NNE)    
Max Wind Speed 10 mph    
Max Gust Speed 24 mph    
Visibility 9 miles    
Events Rain , Thunderstorm    
Averages and records for this station are not official NWS values.
T = Trace of Precipitation, MM = Missing Value Source: NWS Daily Summary

Daily Weather History Graph

Daily Weather History Graph

Search for Another Location

Airport or City:

Astronomy

Jul. 11, 2019 Rise Set
Actual Time 6:02 AM CDT 8:10 PM CDT
Civil Twilight 5:34 AM CDT 8:38 PM CDT
Nautical Twilight 5:00 AM CDT 9:12 PM CDT
Astronomical Twilight 4:23 AM CDT 9:48 PM CDT
Moon 3:32 PM CDT (7/11) 2:01 AM CDT (7/11)
Length of Visible Light 15h 03m
Length of Day
14h 07m
Waxing Gibbous, 74% of the Moon is Illuminated
Jul 11
Waxing Gibbous
Jul 16
Full
Jul 24
Last Quarter
Jul 31
New
Aug 7
First Quarter

Hourly Weather History & Observations

Time (CDT) Temp. Heat Index Dew Point Humidity Pressure Visibility Wind Dir Wind Speed Gust Speed Precip Events Conditions
12:53 AM 77.0 °F - 75.9 °F 96% 29.88 in 10.0 mi Calm Calm - N/A   Partly Cloudy
1:53 AM 77.0 °F - 75.9 °F 96% 29.86 in 10.0 mi ESE 3.5 mph - N/A   Clear
2:53 AM 75.9 °F - 75.0 °F 97% 29.84 in 10.0 mi Calm Calm - N/A   Clear
3:53 AM 75.9 °F - 75.0 °F 97% 29.88 in 10.0 mi NNW 6.9 mph - N/A   Clear
4:06 AM 75.9 °F - 75.0 °F 97% 29.91 in 10.0 mi NNW 5.8 mph - N/A   Partly Cloudy
4:53 AM 75.9 °F - 73.9 °F 94% 29.88 in 10.0 mi Calm Calm - N/A   Clear
5:53 AM 75.0 °F - 73.9 °F 96% 29.89 in 10.0 mi NNE 3.5 mph - N/A   Clear
6:53 AM 78.1 °F - 75.0 °F 90% 29.90 in 10.0 mi Calm Calm - N/A   Clear
7:53 AM 79.0 °F - 75.0 °F 88% 29.91 in 10.0 mi Calm Calm - N/A   Clear
8:53 AM 82.0 °F 89.4 °F 75.9 °F 82% 29.92 in 10.0 mi NE 4.6 mph - N/A   Clear
9:53 AM 84.9 °F 94.1 °F 75.9 °F 74% 29.92 in 10.0 mi NNE 4.6 mph - N/A   Mostly Cloudy
10:13 AM 84.9 °F 94.1 °F 75.9 °F 74% 29.94 in 10.0 mi Variable 4.6 mph - N/A   Mostly Cloudy
10:53 AM 87.1 °F 97.3 °F 75.9 °F 69% 29.91 in 10.0 mi Variable 4.6 mph - N/A   Overcast
11:51 AM 87.8 °F 99.7 °F 77.0 °F 70% 29.92 in 10.0 mi NE 6.9 mph - N/A   Mostly Cloudy
11:53 AM 88.0 °F 100.2 °F 77.0 °F 70% 29.89 in 10.0 mi ENE 5.8 mph - N/A   Mostly Cloudy
12:00 PM 87.1 °F 98.8 °F 77.0 °F 72% 29.91 in 10.0 mi Variable 5.8 mph - N/A   Overcast
12:53 PM 89.1 °F 101.4 °F 77.0 °F 67% 29.88 in 10.0 mi North 5.8 mph - N/A   Mostly Cloudy
2:53 PM 93.0 °F 104.6 °F 75.0 °F 56% 29.83 in 10.0 mi Calm Calm - N/A   Clear
3:53 PM 95.0 °F 105.2 °F 73.9 °F 50% 29.81 in 10.0 mi Variable 4.6 mph - N/A   Partly Cloudy
4:53 PM 93.0 °F 104.6 °F 75.0 °F 56% 29.79 in 10.0 mi North 4.6 mph - N/A   Scattered Clouds
5:53 PM 93.9 °F 105.4 °F 75.0 °F 54% 29.77 in 10.0 mi North 5.8 mph - N/A   Scattered Clouds
6:53 PM 84.0 °F 94.8 °F 78.1 °F 82% 29.78 in 10.0 mi SW 9.2 mph - N/A   Overcast
7:19 PM 80.1 °F 85.4 °F 75.9 °F 87% 29.84 in 1.8 mi NE 10.4 mph 24.2 mph 0.17 in Rain Heavy Rain
7:24 PM 78.1 °F - 77.0 °F 96% 29.84 in 0.8 mi Variable 4.6 mph 19.6 mph 0.28 in Rain Heavy Rain
7:32 PM 78.1 °F - 77.0 °F 96% 29.83 in 1.0 mi NNW 3.5 mph - 0.34 in Rain Heavy Rain
7:40 PM 78.1 °F - 77.0 °F 96% 29.84 in 3.0 mi WNW 5.8 mph - 0.35 in Rain Light Rain
7:53 PM 79.0 °F - 78.1 °F 97% 29.81 in 10.0 mi Calm Calm - 0.35 in Rain Light Rain
8:53 PM 79.0 °F - 78.1 °F 97% 29.84 in 10.0 mi East 5.8 mph - 0.01 in   Mostly Cloudy
9:32 PM 80.1 °F 86.4 °F 78.1 °F 94% 29.87 in 10.0 mi NNE 3.5 mph - N/A Thunderstorm Mostly Cloudy
9:51 PM 78.8 °F - 78.8 °F 100% 29.87 in 10.0 mi Calm Calm - N/A   Scattered Clouds
9:53 PM 79.0 °F - 78.1 °F 97% 29.85 in 10.0 mi NNE 3.5 mph - N/A   Mostly Cloudy
10:00 PM 79.0 °F - 78.1 °F 97% 29.87 in 10.0 mi North 3.5 mph - N/A Thunderstorm Mostly Cloudy
10:20 PM 79.0 °F - 78.1 °F 97% 29.88 in 10.0 mi NNE 4.6 mph - N/A Thunderstorm Thunderstorm
10:35 PM 79.0 °F - 77.0 °F 94% 29.88 in 10.0 mi NE 3.5 mph - 0.00 in Rain , Thunderstorm Light Rain
10:43 PM 79.0 °F - 77.0 °F 94% 29.88 in 10.0 mi East 4.6 mph - 0.00 in   Overcast
10:53 PM 78.1 °F - 77.0 °F 96% 29.86 in 1.8 mi East 8.1 mph 16.1 mph 0.18 in Rain Heavy Rain
11:06 PM 78.1 °F - 77.0 °F 96% 29.87 in 3.0 mi Calm Calm - 0.08 in Rain Light Rain
11:53 PM 77.0 °F - 75.9 °F 96% 29.83 in 10.0 mi North 4.6 mph - 0.09 in   Clear